(12) Victoria
ephemeris date magn radius delta ra dec elong phase
Today19 Apr 202511.61.858 AU2.547 AU23h19m+02°12'37.7°19.3°
Opposition5 Nov 20259.82.291 AU1.300 AU02h38m+18°46'176.8°1.4°
(12) Victoria - 2025-04-19
astro.vanbuitenen.nl


 
-1 year
-1 month
-1 day
Now
+1 day
+1 month
+1 year

The interactive orbit chart above shows the body's path through the solar system and its position at the given date. Green and blue lines are shown perpendicular to the ecliptic plane: Green if the path is above the ecliptic plane, blue if it is below. (Left-click and drag to rotate the view; Right-click and drag to move the view; Use scroll wheel to zoom in our out.)

The orbital elements of Victoria are:

            e (Eccentricity)                : 0.2200210
            a (Semimajor axis)              : 2.3339296
            i (Inclination)                 : 8.37405
            Ω (Longitude of ascending node) : 235.35314
            ω (Argument of perihelion)      : 69.53912
            M (Mean anomaly)                : 21.64688
            Epoch                           : 2025 May 05

            L (Longitude of perihelion)     : 304.69030
            B (Latitude of perihelion)      : 7.84230
            P (Orbital period in years)     : 3.57            
        

The light curve chart below shows the estimated development of the minor planet's magnitude.


The all-sky chart below shows the path of the minor planet over the same period as the light curve. The current position is marked yellow.





The following chart shows the path of the minor planet in the next few days. The field of view is optimized for (~10x50) binoculars and finderscopes. A more printer-friendly version of the same chart can be found below.




Ephemerides:
Date       Time       RA (2000)    DEC (2000)    delta   radius  elong  phase   PA    magn
2025-04-19 00:00 UT   23 19 22.9   +02 12 32     2.547    1.858   37.7   19.3   255   11.6 
2025-04-19 21:24 UT   23 21 19.0   +02 25 29     2.543    1.859   38.1   19.5   255   11.6 
2025-04-20 00:00 UT   23 21 33.1   +02 27 04     2.543    1.859   38.1   19.5   255   11.6 
2025-04-21 00:00 UT   23 23 43.1   +02 41 35     2.538    1.860   38.5   19.6   254   11.6 
2025-04-22 00:00 UT   23 25 52.7   +02 56 04     2.534    1.861   38.8   19.8   254   11.7 
2025-04-23 00:00 UT   23 28 02.0   +03 10 33     2.529    1.862   39.2   20.0   254   11.7 
2025-04-24 00:00 UT   23 30 11.1   +03 25 00     2.525    1.864   39.6   20.1   254   11.7 
2025-04-25 00:00 UT   23 32 19.9   +03 39 26     2.520    1.865   40.0   20.3   254   11.7 
2025-04-26 00:00 UT   23 34 28.4   +03 53 51     2.515    1.866   40.4   20.4   254   11.7 
2025-04-27 00:00 UT   23 36 36.6   +04 08 13     2.511    1.867   40.7   20.6   254   11.7 
2025-04-28 00:00 UT   23 38 44.5   +04 22 34     2.506    1.869   41.1   20.8   254   11.7 
2025-04-29 00:00 UT   23 40 52.2   +04 36 54     2.501    1.870   41.5   20.9   253   11.7 
2025-04-30 00:00 UT   23 42 59.5   +04 51 11     2.496    1.871   41.9   21.1   253   11.7 
2025-05-01 00:00 UT   23 45 06.6   +05 05 26     2.491    1.873   42.3   21.2   253   11.7 
2025-05-02 00:00 UT   23 47 13.4   +05 19 39     2.486    1.874   42.7   21.4   253   11.7 
2025-05-03 00:00 UT   23 49 19.8   +05 33 50     2.481    1.875   43.1   21.5   253   11.7 


    Terminology:
            
    delta:  distance between minor planet and earth in AU
    radius: distance between minor planet and sun in AU
    magn:   magnitude (brightness) estimate    
    ra:     right ascension in hours (24h = 360deg)
    dec:    declination in degrees
    elong:  elongation in degrees (angle sun-earth-minor planet)    
    phase:  phase angle in degrees (angle sun-minor planet-earth)        
    AU:     Astronomical Unit (mean distance between earth and sun: 149597870.7 km
    

Orbital elements provided by the MPC (Minor Planet Center).
Calculations by a modified version of AAPlus, a C# implementation of the AA+ project by PJ Naughter from the algorithms presented in the book "Astronomical Algorithms" by Jean Meeus.
NGC2000 dso catalog and star labels from VizieR as provided by the Strasbourg astronomical Data Center.
Tycho2 catalog from the ESO archive.